Location: Gouvernes
(48.8601°N, 2.6907°E)
Time: 22:40:42
(UTC+00:00)

Landsat 5 - Pass Details

Date: 16 October 2021
Orbit: 528 x 652 km, 98.2° (Epoch: 07 December)

Event Time Altitude Azimuth Distance (km) Brightness Sun altitude
Rises 17:46:27 0° 17° (NNE) 2,865 6.8 -8.8°
Reaches altitude 10° 17:48:39 10° 22° (NNE) 1,976 5.9 -9.2°
Maximum altitude 17:52:53 55° 101° (E) 753 3.7 -9.9°
Drops below altitude 10° 17:57:13 10° 180° (S) 2,024 6.2 -10.6°
Sets 17:59:29 0° 184° (S) 2,940 7.1 -11.0°
